Location: Unspecified
(0.0000°N, 0.0000°E)
Time: 20:25:41
(UTC+00:00)

OAO 1 - Pass Details

Date: 18 June 2023
Orbit: 773 x 782 km, 35.0° (Epoch: 01 October)

Event Time Altitude Azimuth Distance (km) Brightness Sun altitude
Rises 20:24:15 0° 264° (W) 3,233 8.5 -32.4°
Reaches altitude 10° 20:27:28 10° 283° (WNW) 2,305 7.7 -33.1°
Maximum altitude 20:31:07 18° 325° (NW) 1,808 7.0 -33.9°
Drops below altitude 10° 20:34:46 10° 8° (N) 2,302 7.2 -34.7°
Enters shadow 20:35:05 - 10° (N) 2,378 7.2 -34.8°
